Stations météo

réclame
Mon MeteoGroup
Mühldorf, Allemagne (10875): Température de l'air & dewpoint: 17.01.2019 08:00:00 - 23.01.2019 08:00:00 (CET)Mühldorf, Allemagne (10875): Température de l'air 5cm & Température de l'air -5cm: 17.01.2019 08:00:00 - 23.01.2019 08:00:00 (CET)Mühldorf, Allemagne (10875): Température de l'air -20cm & Température de l'air -100cm: 17.01.2019 08:00:00 - 23.01.2019 08:00:00 (CET)Mühldorf, Allemagne (10875): Vitesse du vent & gusts: 17.01.2019 08:00:00 - 23.01.2019 08:00:00 (CET)Mühldorf, Allemagne (10875): Direction du vent: 17.01.2019 08:00:00 - 23.01.2019 08:00:00 (CET)Mühldorf, Allemagne (10875): reduced air pressure: 17.01.2019 08:00:00 - 23.01.2019 08:00:00 (CET)Mühldorf, Allemagne (10875): visibility: 17.01.2019 08:00:00 - 23.01.2019 08:00:00 (CET)Mühldorf, Allemagne (10875): Ensoleillement: 17.01.2019 08:00:00 - 23.01.2019 08:00:00 (CET)Mühldorf, Allemagne (10875): Quantités de précipitations: 17.01.2019 08:00:00 - 23.01.2019 08:00:00 (CET)
Date & Time tt [°C] td [°C] tt 5cm [°C] tt -5cm [°C] tt -20cm [°C] tt -100cm [°C] ff [km/h] ff [knt] fx [km/h] fx [knt] dd ppp [hPa] vv [km] sd [min] rr [mm]
23.01.2019 08:00:00 -5,3 -7,2 -5,0 -1,6 0,7 4,9 11 6 16 9 ENE 1001,4 1,4 0 0,1
23.01.2019 07:00:00 -4,9 -6,9 -4,6 -1,6 0,7 4,9 9 5 16 8 E 1001,6 2,8 0 0,0
23.01.2019 06:00:00 -4,7 -7,1 -4,5 -1,6 0,7 4,9 8 4 12 6 E 1002,0 4,7 0 0,0
23.01.2019 05:00:00 -4,9 -7,0 -4,6 -1,6 0,7 4,9 4 2 9 5 SSE 1002,6 4,3 0 0,0
23.01.2019 04:00:00 -4,9 -6,9 -4,7 -1,6 0,7 4,9 2 1 6 3 SW 1003,2 4,3 0 0,0
23.01.2019 03:00:00 -5,0 -7,2 -4,6 -1,6 0,8 4,9 3 2 13 7 WSW 1004,1 4,7 0 0,0
23.01.2019 02:00:00 -5,1 -7,0 -4,8 -1,6 0,8 4,9 6 3 15 8 SE 1004,6 4,6 0 0,0
23.01.2019 01:00:00 -5,4 -7,1 -5,0 -1,6 0,8 4,9 9 5 22 12 E 1005,3 3,4 0 0,0
23.01.2019 00:00:00 -5,3 -7,0 -5,0 -1,5 0,8 4,9 11 6 17 9 E 1006,0 3,3 0 0,0
22.01.2019 23:00:00 -5,4 -7,1 -5,0 -1,4 0,8 4,9 13 7 20 11 E 1006,8 3,3 0 0,0
22.01.2019 22:00:00 -5,1 -6,8 -4,7 -1,4 0,8 4,9 14 8 19 11 ENE 1007,2 3,2 0 0,0
22.01.2019 21:00:00 -4,8 -6,8 -4,5 -1,3 0,8 4,9 10 5 19 10 ESE 1007,8 3,5 0 0,0
22.01.2019 20:00:00 -4,4 -6,4 -4,1 -1,2 0,8 4,9 10 5 17 9 E 1008,3 4,0 0 0,0
22.01.2019 19:00:00 -4,1 -6,4 -3,9 -1,1 0,8 4,9 10 6 17 9 ESE 1008,7 4,5 0 0,0
22.01.2019 18:00:00 -4,0 -6,4 -3,7 -1,0 0,8 4,9 10 6 18 10 E 1009,3 4,5 0 0,0
22.01.2019 17:00:00 -3,7 -6,3 -3,5 -0,9 0,8 4,9 11 6 20 11 E 1010,0 5 0 0,0
22.01.2019 16:00:00 -3,3 -6,0 -2,9 -0,9 0,8 4,9 8 5 16 9 ESE 1010,8 6 0 0,0
22.01.2019 15:00:00 -3,0 -6,0 -2,3 -0,9 0,8 4,9 10 5 16 9 E 1011,6 6 0 0,0
22.01.2019 14:00:00 -2,9 -6,0 -2,1 -1,0 0,8 4,9 7 4 12 7 E 1012,7 4,9 0 0,0
22.01.2019 13:00:00 -2,9 -5,6 -2,0 -1,1 0,8 4,9 6 3 12 7 E 1013,6 5 0 0,0
22.01.2019 12:00:00 -3,1 -5,4 -2,4 -1,2 0,8 4,9 5 3 8 5 SSE 1014,9 4,8 0 0,0
22.01.2019 11:00:00 -3,6 -5,8 -2,9 -1,3 0,8 5,0 4 2 7 4 E 1015,8 4,1 0 0,0
22.01.2019 10:00:00 -4,0 -5,8 -3,6 -1,4 0,8 5,0 3 2 7 4 E 1016,4 3,5 0 0,0
22.01.2019 09:00:00 -4,1 -5,9 -3,9 -1,4 0,9 5,0 3 2 12 6 WNW 1016,8 4,1 0 0,0
22.01.2019 08:00:00 -4,0 -6,0 -4,0 -1,4 0,9 5,0 5 3 8 5 SSW 1017,1 4,2 0 0,0
22.01.2019 07:00:00 -4,0 -5,9 -3,8 -1,5 0,9 5,0 5 3 11 6 NNE 1017,3 4,1 0 0,0
22.01.2019 06:00:00 -3,9 -5,9 -3,9 -1,5 0,9 5,0 9 5 16 9 NNW 1017,7 4,2 0 0,0
22.01.2019 05:00:00 -3,9 -5,8 -3,9 -1,6 0,9 5,0 6 3 9 5 WNW 1018,2 3,8 0 0,0
22.01.2019 04:00:00 -4,8 -6,1 -4,6 -1,8 0,9 5,0 0 0 4 2 N 1018,9 3,9 0 0,0
22.01.2019 03:00:00 -5,5 -6,8 -5,3 -1,9 0,9 5,0 0 0 3 1 N 1019,7 3,8 0 0,0
22.01.2019 02:00:00 -6,8 -8,0 -6,4 -2,1 0,9 5,0 2 1 4 2 NNW 1020,6 4,0 0 0,0
22.01.2019 01:00:00 -7,4 -8,7 -10,2 -2,0 0,9 5,0 3 1 5 3 WNW 1021,3 3,3 0 0,0
22.01.2019 00:00:00 -6,3 -7,7 -8,7 -1,8 1,0 5,0 3 2 5 3 NNW 1021,3 4,0 0 0,0
21.01.2019 23:00:00 -6,8 -8,3 -7,9 -1,7 1,0 5,0 2 1 5 3 WNW 1021,8 4,3 0 0,0
21.01.2019 22:00:00 -6,3 -7,7 -9,0 -1,5 1,0 5,0 3 1 4 2 NW 1021,7 4,3 0 0,0
21.01.2019 21:00:00 -5,8 -7,1 -8,4 -1,3 1,0 5,0 3 2 6 3 N 1021,5 4,0 0 0,0
21.01.2019 20:00:00 -4,1 -5,8 -6,4 -1,0 1,0 5,0 3 2 4 2 NW 1021,2 5 0 0,0
21.01.2019 19:00:00 -3,2 -5,7 -4,1 -0,9 1,0 5,0 4 2 4 2 NW 1021,2 7 0 0,0
21.01.2019 18:00:00 -2,7 -5,4 -4,4 -0,8 1,0 5,0 4 2 6 3 NNW 1021,2 8 0 0,0
21.01.2019 17:00:00 -2,2 -5,3 -3,8 -0,7 1,0 5,0 4 2 7 4 NNW 1021,1 8 0 0,0
21.01.2019 16:00:00 -2,0 -6,2 -3,2 -0,6 1,0 5,0 3 2 4 2 WNW 1021,2 10 0 0,0
21.01.2019 15:00:00 -1,7 -6,4 -1,6 -0,5 1,0 5,0 3 2 6 3 NW 1021,1 11 0 0,0
21.01.2019 14:00:00 -1,7 -6,7 -0,5 -0,6 1,0 5,0 4 2 8 5 NE 1021,4 11 12 0,0
21.01.2019 13:00:00 -2,0 -6,9 0,2 -0,7 1,0 5,0 5 3 10 6 ENE 1021,9 10 7 0,0
21.01.2019 12:00:00 -2,4 -6,6 -0,6 -0,8 1,0 5,0 7 4 12 7 ENE 1022,5 11 0 0,0
21.01.2019 11:00:00 -3,2 -7,1 -2,2 -1,0 1,0 5,0 7 4 11 6 E 1023,1 10 0 0,0
21.01.2019 10:00:00 -3,9 -7,6 -3,1 -1,1 1,0 5,0 7 4 16 9 ENE 1022,9 10 0 0,0
21.01.2019 09:00:00 -4,1 -7,5 -3,9 -1,1 1,0 5,0 12 7 18 10 ENE 1022,9 10 0 0,0
21.01.2019 08:00:00 -4,1 -7,5 -4,0 -1,1 1,0 5,0 10 5 16 9 ENE 1022,5 11 0 0,0
21.01.2019 07:00:00 -4,0 -7,3 -4,0 -1,0 1,1 5,0 11 6 15 8 ENE 1022,1 9 0 0,0
21.01.2019 06:00:00 -3,5 -6,8 -3,6 -1,0 1,1 5,0 11 6 16 9 NE 1021,7 8 0 0,0
21.01.2019 05:00:00 -3,3 -6,2 -3,4 -1,0 1,1 5,0 7 4 11 6 ENE 1021,6 8 0 0,0
21.01.2019 04:00:00 -3,4 -5,8 -3,5 -1,0 1,1 5,0 8 4 15 8 E 1021,6 6 0 0,0
21.01.2019 03:00:00 -3,5 -6,0 -3,5 -1,0 1,1 5,0 10 6 14 7 ENE 1021,9 6 0 0,0
21.01.2019 02:00:00 -3,5 -5,9 -3,5 -1,0 1,1 5,0 9 5 16 9 ENE 1021,8 6 0 0,0
21.01.2019 01:00:00 -3,6 -6,0 -3,6 -0,9 1,1 5,0 11 6 17 9 ENE 1021,8 6 0 0,0
21.01.2019 00:00:00 -3,6 -6,2 -3,6 -0,9 1,1 5,0 9 5 14 8 ENE 1021,7 6 0 0,0
20.01.2019 23:00:00 -3,5 -6,0 -3,5 -0,9 1,1 5,0 9 5 11 6 ENE 1021,2 6 0 0,0
20.01.2019 22:00:00 -3,5 -5,9 -3,4 -0,8 1,1 5,0 9 5 16 9 ENE 1020,9 5 0 0,0
20.01.2019 21:00:00 -3,5 -6,0 -3,4 -0,8 1,2 5,0 12 7 16 9 ENE 1020,3 6 0 0,0
20.01.2019 20:00:00 -3,5 -5,8 -3,5 -0,8 1,2 5,0 9 5 12 7 E 1020,0 6 0 0,0
20.01.2019 19:00:00 -3,7 -6,0 -4,0 -0,7 1,2 5,0 8 5 16 9 ENE 1019,6 6 0 0,0
20.01.2019 18:00:00 -3,6 -6,1 -4,4 -0,5 1,2 5,0 9 5 16 8 NE 1019,0 6 0 0,0
20.01.2019 17:00:00 -2,9 -5,9 -3,3 -0,5 1,2 5,0 9 5 12 7 NE 1018,3 6 0 0,0
20.01.2019 16:00:00 -2,1 -5,4 -1,5 -0,5 1,2 5,0 7 4 9 5 NE 1017,9 7 0 0,0
20.01.2019 15:00:00 -1,7 -5,9 -1,3 -0,5 1,2 5,0 5 3 8 4 ESE 1017,3 9 8 0,0
20.01.2019 14:00:00 -1,5 -6,5 0,0 -0,6 1,2 5,0 4 2 12 6 SE 1017,2 9 60 0,0
20.01.2019 13:00:00 -2,7 -7,3 -1,1 -0,7 1,2 5,0 7 4 13 7 SE 1017,6 9 60 0,0
20.01.2019 12:00:00 -3,9 -7,1 -2,0 -0,9 1,3 5,0 8 4 13 7 E 1017,9 6 60 0,0
20.01.2019 11:00:00 -5,0 -8,1 -3,7 -1,1 1,3 5,0 7 4 10 5 ESE 1018,3 5 59 0,0
20.01.2019 10:00:00 -6,0 -8,0 -5,2 -1,4 1,3 5,0 3 2 9 5 SE 1018,0 4,3 46 0,0
20.01.2019 09:00:00 -7,3 -8,8 -7,3 -1,5 1,3 5,0 5 3 8 4 E 1017,8 3,9 0 0,0
20.01.2019 08:00:00 -7,7 -9,0 -7,8 -1,5 1,3 5,0 3 2 6 3 E 1017,2 5 0 0,0
20.01.2019 07:00:00 -9,0 -10,3 -10,9 -1,4 1,4 5,1 0 0 5 3 N 1017,2 7 0 0,0
20.01.2019 06:00:00 -8,7 -10,0 -11,2 -1,3 1,4 5,1 3 1 4 2 E 1017,0 6 0 0,0
20.01.2019 05:00:00 -8,6 -9,8 -10,8 -1,1 1,4 5,1 0 0 3 2 N 1017,0 4,3 0 0,0
20.01.2019 04:00:00 -8,3 -9,7 -11,0 -0,9 1,4 5,1 0 0 2 1 N 1017,0 7 0 0,0
20.01.2019 03:00:00 -8,3 -9,3 -10,9 -0,8 1,4 5,1 0 0 2 1 N 1017,1 6 0 0,0
20.01.2019 02:00:00 -7,9 -9,1 -10,7 -0,6 1,4 5,1 0 0 3 1 N 1017,0 8 0 0,0
20.01.2019 01:00:00 -7,6 -9,0 -10,5 -0,4 1,4 5,1 2 1 5 3 NNW 1017,0 10 0 0,0
20.01.2019 00:00:00 -6,4 -8,8 -9,3 -0,3 1,4 5,1 4 2 10 6 ENE 1017,0 12 0 0,0
19.01.2019 23:00:00 -5,0 -7,5 -7,7 -0,2 1,5 5,1 7 4 10 5 E 1016,7 15 0 0,0
19.01.2019 22:00:00 -4,9 -7,1 -8,3 -0,2 1,5 5,1 6 3 9 5 E 1016,8 14 0 0,0
19.01.2019 21:00:00 -4,1 -7,0 -7,2 -0,1 1,5 5,1 6 4 9 5 E 1016,6 17 0 0,0
19.01.2019 20:00:00 -4,1 -6,8 -7,3 -0,1 1,5 5,1 7 4 9 5 E 1016,7 18 0 0,0
19.01.2019 19:00:00 -4,2 -6,2 -7,4 0,0 1,5 5,1 3 1 4 2 E 1017,1 18 0 0,0
19.01.2019 18:00:00 -3,1 -6,4 -7,4 0,0 1,5 5,1 3 2 11 6 ESE 1016,9 18 0 0,0
19.01.2019 17:00:00 -2,1 -6,8 -4,5 0,1 1,5 5,1 6 3 13 7 ESE 1016,9 23 19 0,0
19.01.2019 16:00:00 -1,3 -6,8 -1,3 0,1 1,5 5,1 8 4 14 7 ESE 1016,9 23 60 0,0
19.01.2019 15:00:00 -1,1 -6,3 -0,9 0,1 1,5 5,1 9 5 18 10 ESE 1017,2 19 60 0,0
19.01.2019 14:00:00 -1,3 -6,8 -0,3 0,1 1,5 5,1 9 5 13 7 SE 1017,7 19 60 0,0
19.01.2019 13:00:00 -1,8 -6,6 -0,8 0,1 1,5 5,1 8 5 16 9 SE 1018,3 19 60 0,0
19.01.2019 12:00:00 -2,5 -6,5 -1,8 0,0 1,5 5,1 10 6 23 13 ESE 1019,0 13 59 0,0
19.01.2019 11:00:00 -2,8 -6,8 -3,2 0,0 1,5 5,1 14 7 24 13 ESE 1019,6 16 60 0,0
19.01.2019 10:00:00 -3,5 -7,1 -3,3 0,1 1,5 5,1 4 2 6 3 E 1019,9 14 60 0,0
19.01.2019 09:00:00 -5,2 -7,0 -7,8 0,1 1,6 5,1 3 2 10 5 ESE 1020,0 9 1 0,0
19.01.2019 08:00:00 -4,9 -7,2 -7,7 0,1 1,6 5,1 7 4 13 7 E 1019,7 14 0 0,0
19.01.2019 07:00:00 -4,5 -6,9 -6,3 0,1 1,6 5,1 10 5 16 8 E 1019,6 12 0 0,0
19.01.2019 06:00:00 -4,5 -6,7 -6,5 0,2 1,6 5,1 8 4 13 7 E 1019,7 12 0 0,0
19.01.2019 05:00:00 -4,3 -6,4 -6,0 0,2 1,6 5,1 10 5 21 11 E 1019,9 9 0 0,0
19.01.2019 04:00:00 -3,6 -5,7 -4,9 0,2 1,6 5,1 10 5 17 9 E 1019,9 12 0 0,0
19.01.2019 03:00:00 -5,1 -6,4 -7,0 0,2 1,6 5,1 8 4 10 6 E 1020,6 9 0 0,0
19.01.2019 02:00:00 -4,8 -6,0 -6,6 0,2 1,6 5,1 6 3 9 5 E 1021,0 7 0 0,0
19.01.2019 01:00:00 -5,0 -6,1 -6,7 0,2 1,6 5,1 5 3 6 3 E 1021,6 8 0 0,0
19.01.2019 00:00:00 -4,5 -6,1 -7,3 0,2 1,6 5,1 4 2 12 6 ESE 1022,1 9 0 0,0
18.01.2019 23:00:00 -3,1 -5,0 -5,0 0,2 1,6 5,1 9 5 12 6 ENE 1022,1 13 0 0,0
18.01.2019 22:00:00 -3,8 -4,7 -7,7 0,2 1,6 5,1 5 3 9 5 ENE 1022,6 6 0 0,0
18.01.2019 21:00:00 -3,6 -4,6 -6,3 0,3 1,7 5,1 4 2 7 4 ESE 1022,4 6 0 0,0
18.01.2019 20:00:00 -3,2 -4,3 -4,6 0,3 1,7 5,1 4 2 5 3 ENE 1022,6 7 0 0,0
18.01.2019 19:00:00 -2,7 -4,0 -7,8 0,3 1,7 5,1 1 1 6 4 WNW 1022,4 12 0 0,0
18.01.2019 18:00:00 -1,5 -3,4 -5,0 0,3 1,7 5,1 4 2 10 6 SE 1022,1 17 0 0,0
18.01.2019 17:00:00 0,2 -4,4 -2,3 0,3 1,7 5,1 5 3 8 5 N 1021,7 32 8 0,0
18.01.2019 16:00:00 1,0 -4,7 1,3 0,3 1,7 5,1 8 4 13 7 NNW 1021,4 23 48 0,0
18.01.2019 15:00:00 2,0 -4,7 3,0 0,3 1,7 5,1 7 4 18 10 W 1020,9 30 49 0,0
18.01.2019 14:00:00 1,1 -3,0 2,1 0,3 1,8 5,1 12 6 25 14 W 1021,2 22 19 0,0
18.01.2019 13:00:00 0,3 -3,4 1,1 0,3 1,8 5,1 11 6 33 18 WNW 1021,5 21 8 0,2
18.01.2019 12:00:00 0,9 -4,3 0,9 0,3 1,8 5,1 19 10 28 15 WNW 1021,4 20 20 0,0
18.01.2019 11:00:00 0,5 -3,9 0,7 0,3 1,8 5,1 20 11 33 18 W 1021,6 20 21 0,0
18.01.2019 10:00:00 0,2 -3,5 0,3 0,3 1,8 5,1 21 11 34 18 W 1021,0 23 12 0,1
18.01.2019 09:00:00 -1,1 -3,0 -1,0 0,3 1,9 5,1 16 8 31 17 NW 1020,4 1,4 0 0,5
18.01.2019 08:00:00 0,1 -3,0 -0,3 0,4 1,9 5,1 20 11 34 18 W 1018,7 8 0 0,2
18.01.2019 07:00:00 0,2 -3,4 -0,1 0,4 1,9 5,1 23 12 34 19 W 1017,7 6 0 0,0
18.01.2019 06:00:00 0,5 -3,8 0,0 0,4 1,9 5,1 24 13 39 21 W 1016,7 46 0 0,0
18.01.2019 05:00:00 0,8 -3,1 0,2 0,5 2,0 5,1 23 12 36 19 WNW 1015,5 50 0 0,0
18.01.2019 04:00:00 0,9 -2,1 0,4 0,6 2,0 5,1 22 12 38 20 W 1014,9 52 0 0,0
18.01.2019 03:00:00 1,3 -1,7 0,7 0,8 2,0 5,1 27 15 45 25 W 1014,6 40 0 0,0
18.01.2019 02:00:00 1,7 -1,7 1,0 0,9 2,0 5,1 15 8 32 17 W 1014,1 65 0 0,0
18.01.2019 01:00:00 1,9 -1,6 1,1 1,1 2,0 5,1 23 12 34 19 W 1013,8 66 0 0,0
18.01.2019 00:00:00 2,1 -1,5 1,0 1,4 2,0 5,1 27 15 56 30 W 1013,4 70 0 0,0
17.01.2019 23:00:00 3,8 -1,1 2,9 1,5 2,0 5,1 22 12 35 19 W 1012,0 64 0 0,0
17.01.2019 22:00:00 4,3 -0,9 3,2 1,6 1,9 5,1 22 12 34 18 W 1011,2 70 0 0,0
17.01.2019 21:00:00 4,5 -0,8 3,2 1,8 1,9 5,1 21 12 34 18 W 1010,9 70 0 0,0
17.01.2019 20:00:00 4,8 -0,5 3,7 1,9 1,8 5,1 20 11 30 16 WSW 1010,3 65 0 0,0
17.01.2019 19:00:00 5,2 -0,8 4,0 2,1 1,8 5,1 18 10 27 14 WSW 1009,9 70 0 0,0
17.01.2019 18:00:00 4,6 1,2 2,9 2,3 1,7 5,1 6 4 40 21 SW 1009,6 51 0 0,0
17.01.2019 17:00:00 5,9 1,2 4,7 2,3 1,7 5,1 15 8 34 18 W 1008,9 50 0 0,0
17.01.2019 16:00:00 6,2 1,3 5,3 2,1 1,7 5,1 28 15 47 25 W 1008,0 58 0 0,0
17.01.2019 15:00:00 7,5 0,3 6,3 1,2 1,7 5,1 17 9 34 18 WNW 1007,0 49 0 0,0
17.01.2019 14:00:00 6,8 -0,5 5,5 0,4 1,7 5,1 5 3 12 7 SW 1007,0 42 0 0,0
17.01.2019 13:00:00 6,7 0,2 6,0 0,2 1,7 5,1 4 2 7 4 S 1007,6 41 0 0,0
17.01.2019 12:00:00 5,4 1,3 5,0 0,2 1,7 5,1 4 2 14 7 E 1008,4 23 18 0,0
17.01.2019 11:00:00 4,0 0,0 5,8 0,2 1,7 5,1 5 3 8 4 E 1009,7 21 27 0,0
17.01.2019 10:00:00 2,6 -2,1 2,8 0,2 1,8 5,1 5 3 9 5 ESE 1010,1 29 60 0,0
17.01.2019 09:00:00 0,6 -2,9 0,1 0,2 1,8 5,1 6 3 11 6 W 1010,7 39 25 0,0
17.01.2019 08:00:00 -2,8 -4,1 -3,8 0,2 1,8 5,1 4 2 7 4 WNW 1011,4 14 0 0,0

tt = Température de l'air
td = dewpoint
tt 5cm = Température de l'air 5cm
tt -5cm = Température de l'air -5cm
tt -20cm = Température de l'air -20cm
tt -100cm = Température de l'air -100cm
ff = Vitesse du vent
fx = gusts
dd = Direction du vent
ppp = reduced air pressure
vv = visibility
sd = Ensoleillement
rr = Quantités de précipitations

stations d'obs. à proximité